| time (UTC) | temp C | wind direction | speed KPH | gust KPH | rain 1hr cm | rain 24hr cm | rain mn cm | humidity % | barometer mb |
| 20260503002149 | 17 | 239 | 3.2 | 16.1 | 0.00 | 0.00 | 0.00 | 36 | 1009.2 |
| 20260503001646 | 17 | 234 | 6.4 | 14.5 | 0.00 | 0.00 | 0.00 | 36 | 1009.1 |
| 20260503001143 | 17 | 233 | 6.4 | 11.3 | 0.00 | 0.00 | 0.00 | 36 | 1009.4 |
| 20260503000641 | 17 | 233 | 9.7 | 12.9 | 0.00 | 0.00 | 0.00 | 35 | 1009.5 |
| 20260503000137 | 17 | 185 | 9.7 | 14.5 | 0.00 | 0.00 | 0.00 | 35 | 1009.7 |
| 20260502235634 | 17 | 255 | 9.7 | 14.5 | 0.00 | 0.00 | 0.00 | 35 | 1010.0 |
| 20260502235132 | 17 | 220 | 4.8 | 20.9 | 0.00 | 0.00 | 0.00 | 36 | 1010.2 |
| 20260502234627 | 17 | 185 | 6.4 | 9.7 | 0.00 | 0.00 | 0.00 | 36 | 1010.3 |
| 20260502234125 | 17 | 242 | 9.7 | 12.9 | 0.00 | 0.00 | 0.00 | 36 | 1010.4 |
| 20260502233621 | 17 | 203 | 1.6 | 4.8 | 0.00 | 0.00 | 0.00 | 40 | 1010.3 |
| 20260502233118 | 17 | 240 | 4.8 | 9.7 | 0.00 | 0.00 | 0.00 | 35 | 1010.5 |
| 20260502232614 | 17 | 237 | 8.0 | 11.3 | 0.00 | 0.00 | 0.00 | 37 | 1010.5 |
| 20260502232112 | 17 | 199 | 1.6 | 9.7 | 0.00 | 0.00 | 0.00 | 37 | 1010.7 |
| 20260502231608 | 17 | 275 | 6.4 | 17.7 | 0.00 | 0.00 | 0.00 | 40 | 1010.8 |
| 20260502231106 | 17 | 254 | 8.0 | 16.1 | 0.00 | 0.00 | 0.00 | 37 | 1011.0 |
| 20260502230604 | 17 | 253 | 4.8 | 6.4 | 0.00 | 0.00 | 0.00 | 36 | 1011.0 |
| 20260502225557 | 17 | 239 | 3.2 | 6.4 | 0.00 | 0.00 | 0.00 | 37 | 1011.3 |
| 20260502225055 | 17 | 288 | 1.6 | 6.4 | 0.00 | 0.00 | 0.00 | 38 | 1011.4 |
| 20260502224551 | 17 | 229 | 3.2 | 4.8 | 0.00 | 0.00 | 0.00 | 37 | 1011.4 |
| 20260502224048 | 17 | 274 | 4.8 | 4.8 | 0.00 | 0.00 | 0.00 | 39 | 1011.5 |
| 20260502223546 | 16 | 196 | 1.6 | 4.8 | 0.00 | 0.00 | 0.00 | 40 | 1011.6 |
| 20260502223044 | 16 | 251 | 4.8 | 9.7 | 0.00 | 0.00 | 0.00 | 38 | 1011.8 |
| 20260502222541 | 16 | 260 | 8.0 | 11.3 | 0.00 | 0.00 | 0.00 | 36 | 1011.8 |
| 20260502222037 | 16 | 242 | 8.0 | 12.9 | 0.00 | 0.00 | 0.00 | 37 | 1011.7 |
| 20260502221533 | 16 | 264 | 4.8 | 11.3 | 0.00 | 0.00 | 0.00 | 37 | 1011.7 |
| 20260502221031 | 16 | 259 | 4.8 | 6.4 | 0.00 | 0.00 | 0.00 | 36 | 1011.9 |
| 20260502220526 | 16 | 254 | 16.1 | 24.1 | 0.00 | 0.00 | 0.00 | 35 | 1012.0 |
| 20260502220023 | 17 | 253 | 9.7 | 16.1 | 0.00 | 0.00 | 0.00 | 36 | 1012.2 |
| 20260502215520 | 17 | 301 | 19.3 | 27.4 | 0.00 | 0.00 | 0.00 | 34 | 1012.2 |
| 20260502215017 | 17 | 254 | 9.7 | 27.4 | 0.00 | 0.00 | 0.00 | 34 | 1012.2 |
| 20260502214514 | 17 | 273 | 17.7 | 22.5 | 0.00 | 0.00 | 0.00 | 32 | 1012.4 |
| 20260502214012 | 17 | 299 | 9.7 | 24.1 | 0.00 | 0.00 | 0.00 | 35 | 1012.0 |
| 20260502213508 | 17 | 281 | 11.3 | 14.5 | 0.00 | 0.00 | 0.00 | 33 | 1012.0 |
| 20260502213006 | 17 | 274 | 9.7 | 14.5 | 0.00 | 0.00 | 0.00 | 34 | 1011.9 |
| 20260502212504 | 17 | 286 | 6.4 | 12.9 | 0.00 | 0.00 | 0.00 | 34 | 1012.0 |
| 20260502212001 | 17 | 238 | 4.8 | 4.8 | 0.00 | 0.00 | 0.00 | 34 | 1012.4 |
| 20260502211457 | 17 | 230 | 11.3 | 20.9 | 0.00 | 0.00 | 0.00 | 34 | 1012.2 |
| 20260502210955 | 17 | 335 | 4.8 | 17.7 | 0.00 | 0.00 | 0.00 | 32 | 1012.1 |
| 20260502210451 | 18 | 275 | 11.3 | 17.7 | 0.00 | 0.00 | 0.00 | 36 | 1012.2 |
| 20260502205948 | 18 | 273 | 9.7 | 16.1 | 0.00 | 0.00 | 0.00 | 33 | 1012.1 |
| 20260502205444 | 18 | 278 | 4.8 | 20.9 | 0.00 | 0.00 | 0.00 | 33 | 1012.2 |
| 20260502204942 | 18 | 265 | 8.0 | 14.5 | 0.00 | 0.00 | 0.00 | 35 | 1012.5 |
| 20260502204439 | 18 | 232 | 9.7 | 14.5 | 0.00 | 0.00 | 0.00 | 34 | 1012.1 |
| 20260502203937 | 18 | 272 | 8.0 | 17.7 | 0.00 | 0.00 | 0.00 | 36 | 1012.4 |
| 20260502203434 | 18 | 247 | 9.7 | 24.1 | 0.00 | 0.00 | 0.00 | 34 | 1012.4 |
| 20260502202930 | 18 | 242 | 12.9 | 17.7 | 0.00 | 0.00 | 0.00 | 34 | 1012.5 |
| 20260502202427 | 18 | 209 | 9.7 | 16.1 | 0.00 | 0.00 | 0.00 | 35 | 1012.6 |
| 20260502201925 | 18 | 295 | 9.7 | 17.7 | 0.00 | 0.00 | 0.00 | 34 | 1012.5 |
| 20260502201420 | 18 | 223 | 9.7 | 14.5 | 0.00 | 0.00 | 0.00 | 33 | 1012.6 |
| 20260502200918 | 19 | 269 | 8.0 | 24.1 | 0.00 | 0.00 | 0.00 | 34 | 1012.7 |
| 20260502200413 | 18 | 241 | 4.8 | 16.1 | 0.00 | 0.00 | 0.00 | 36 | 1012.7 |
| 20260502195911 | 18 | 252 | 6.4 | 16.1 | 0.00 | 0.00 | 0.00 | 35 | 1012.9 |
| 20260502195408 | 19 | 270 | 11.3 | 14.5 | 0.00 | 0.00 | 0.00 | 32 | 1012.8 |
| 20260502194904 | 19 | 271 | 6.4 | 17.7 | 0.00 | 0.00 | 0.00 | 38 | 1012.9 |
| 20260502194401 | 19 | 244 | 4.8 | 17.7 | 0.00 | 0.00 | 0.00 | 34 | 1012.9 |
| 20260502193857 | 19 | 255 | 8.0 | 22.5 | 0.00 | 0.00 | 0.00 | 34 | 1013.1 |
| 20260502193354 | 19 | 219 | 6.4 | 12.9 | 0.00 | 0.00 | 0.00 | 32 | 1013.2 |
| 20260502192849 | 19 | 268 | 16.1 | 22.5 | 0.00 | 0.00 | 0.00 | 32 | 1013.4 |
| 20260502192342 | 18 | 289 | 14.5 | 17.7 | 0.00 | 0.00 | 0.00 | 34 | 1013.2 |
| 20260502191839 | 19 | 234 | 6.4 | 16.1 | 0.00 | 0.00 | 0.00 | 36 | 1013.4 |
| 20260502191337 | 19 | 249 | 11.3 | 20.9 | 0.00 | 0.00 | 0.00 | 33 | 1013.3 |
| 20260502190834 | 19 | 235 | 8.0 | 11.3 | 0.00 | 0.00 | 0.00 | 33 | 1013.8 |
| 20260502190331 | 18 | 245 | 9.7 | 20.9 | 0.00 | 0.00 | 0.00 | 36 | 1013.7 |
| 20260502185827 | 18 | 168 | 8.0 | 11.3 | 0.00 | 0.00 | 0.00 | 35 | 1013.6 |
| 20260502185323 | 19 | 327 | 9.7 | 17.7 | 0.00 | 0.00 | 0.00 | 36 | 1013.7 |
| 20260502184820 | 19 | 215 | 6.4 | 16.1 | 0.00 | 0.00 | 0.00 | 35 | 1013.7 |
| 20260502184315 | 18 | 260 | 4.8 | 20.9 | 0.00 | 0.00 | 0.00 | 35 | 1013.9 |
| 20260502183812 | 18 | 274 | 6.4 | 12.9 | 0.00 | 0.00 | 0.00 | 41 | 1014.1 |
| 20260502183308 | 18 | 233 | 9.7 | 17.7 | 0.00 | 0.00 | 0.00 | 37 | 1014.1 |
| 20260502182803 | 18 | 239 | 9.7 | 12.9 | 0.00 | 0.00 | 0.00 | 38 | 1014.2 |
| 20260502182258 | 17 | 241 | 9.7 | 17.7 | 0.00 | 0.00 | 0.00 | 39 | 1014.2 |
| 20260502181755 | 17 | 251 | 16.1 | 22.5 | 0.00 | 0.00 | 0.00 | 39 | 1014.4 |
| 20260502181255 | 17 | 216 | 14.5 | 17.7 | 0.00 | 0.00 | 0.00 | 38 | 1014.6 |
| 20260502180752 | 17 | 200 | 9.7 | 12.9 | 0.00 | 0.00 | 0.00 | 42 | 1014.4 |
| 20260502180250 | 17 | 223 | 9.7 | 17.7 | 0.00 | 0.00 | 0.00 | 40 | 1014.5 |
| 20260502170213 | 16 | 197 | 9.7 | 17.7 | 0.00 | 0.00 | 0.00 | 42 | 1015.6 |
| 20260502164200 | 16 | 195 | 8.0 | 11.3 | 0.00 | 0.00 | 0.00 | 45 | 1015.7 |
| 20260502163655 | 15 | 253 | 9.7 | 16.1 | 0.00 | 0.00 | 0.00 | 43 | 1015.7 |
| 20260502163153 | 15 | 233 | 6.4 | 9.7 | 0.00 | 0.00 | 0.00 | 45 | 1016.0 |
| 20260502162649 | 15 | 219 | 11.3 | 17.7 | 0.00 | 0.00 | 0.00 | 45 | 1015.8 |
| 20260502162147 | 15 | 194 | 6.4 | 14.5 | 0.00 | 0.00 | 0.00 | 48 | 1015.9 |
| 20260502161644 | 15 | 221 | 11.3 | 16.1 | 0.00 | 0.00 | 0.00 | 46 | 1016.1 |
| 20260502161140 | 14 | 227 | 11.3 | 14.5 | 0.00 | 0.00 | 0.00 | 46 | 1016.1 |
| 20260502160638 | 13 | 216 | 8.0 | 12.9 | 0.00 | 0.00 | 0.00 | 47 | 1016.3 |
| 20260502160137 | 13 | 171 | 3.2 | 12.9 | 0.00 | 0.00 | 0.00 | 47 | 1016.2 |
| 20260502152051 | 11 | 279 | 1.6 | 9.7 | 0.00 | 0.00 | 0.00 | 54 | 1016.7 |
| 20260502151548 | 11 | 261 | 9.7 | 14.5 | 0.00 | 0.00 | 0.00 | 52 | 1016.9 |
| 20260502151045 | 11 | 247 | 8.0 | 12.9 | 0.00 | 0.00 | 0.00 | 54 | 1016.9 |
| 20260502150543 | 11 | 211 | 3.2 | 11.3 | 0.00 | 0.00 | 0.00 | 54 | 1016.9 |
| 20260502130422 | 6 | 231 | 3.2 | 11.3 | 0.00 | 0.00 | 0.00 | 66 | 1018.6 |
| 20260502123405 | 6 | 231 | 4.8 | 9.7 | 0.00 | 0.00 | 0.00 | 69 | 1018.7 |
| 20260502122902 | 6 | 244 | 4.8 | 9.7 | 0.00 | 0.00 | 0.00 | 69 | 1018.6 |
| 20260502122358 | 6 | 214 | 3.2 | 6.4 | 0.00 | 0.00 | 0.00 | 71 | 1018.6 |
| 20260502121856 | 6 | 178 | 1.6 | 9.7 | 0.00 | 0.00 | 0.00 | 71 | 1018.6 |
| 20260502121353 | 6 | 221 | 1.6 | 4.8 | 0.00 | 0.00 | 0.00 | 70 | 1018.4 |
| 20260502120851 | 5 | 217 | 1.6 | 6.4 | 0.00 | 0.00 | 0.00 | 68 | 1018.7 |
| 20260502120347 | 5 | 232 | 6.4 | 9.7 | 0.00 | 0.00 | 0.00 | 70 | 1018.7 |
| 20260502115844 | 5 | 205 | 0.0 | 1.6 | 0.00 | 0.00 | 0.00 | 71 | 1018.7 |
| 20260502115341 | 5 | 134 | 1.6 | 3.2 | 0.00 | 0.00 | 0.00 | 72 | 1018.8 |
| 20260502114838 | 5 | 166 | 1.6 | 1.6 | 0.00 | 0.00 | 0.00 | 73 | 1018.7 |
| 20260502114335 | 5 | 239 | 3.2 | 4.8 | 0.00 | 0.00 | 0.00 | 71 | 1018.6 |
| 20260502113832 | 4 | 234 | 4.8 | 4.8 | 0.00 | 0.00 | 0.00 | 72 | 1018.8 |
| 20260502113329 | 3 | 209 | 0.0 | 0.0 | 0.00 | 0.00 | 0.00 | 73 | 1018.7 |
| 20260502112828 | 3 | 186 | 0.0 | 1.6 | 0.00 | 0.00 | 0.00 | 74 | 1018.6 |
| 20260502112324 | 3 | 177 | 0.0 | 1.6 | 0.00 | 0.00 | 0.00 | 74 | 1018.7 |
| 20260502111822 | 3 | 178 | 0.0 | 0.0 | 0.00 | 0.00 | 0.00 | 77 | 1018.7 |
| 20260502111319 | 3 | 193 | 0.0 | 0.0 | 0.00 | 0.00 | 0.00 | 77 | 1018.9 |
| 20260502110817 | 3 | 229 | 0.0 | 0.0 | 0.00 | 0.00 | 0.00 | 77 | 1019.0 |
| 20260502110315 | 3 | 216 | 0.0 | 1.6 | 0.00 | 0.00 | 0.00 | 77 | 1018.8 |
| 20260502105812 | 2 | 222 | 1.6 | 1.6 | 0.00 | 0.00 | 0.00 | 79 | 1018.8 |
| 20260502105308 | 2 | 206 | 0.0 | 0.0 | 0.00 | 0.00 | 0.00 | 79 | 1018.7 |
| 20260502104806 | 2 | 183 | 0.0 | 0.0 | 0.00 | 0.00 | 0.00 | 80 | 1018.9 |
| 20260502104303 | 2 | 235 | 0.0 | 1.6 | 0.00 | 0.00 | 0.00 | 80 | 1019.2 |
| 20260502103800 | 2 | 184 | 0.0 | 1.6 | 0.00 | 0.00 | 0.00 | 81 | 1019.0 |
| 20260502103257 | 2 | 193 | 0.0 | 0.0 | 0.00 | 0.00 | 0.00 | 81 | 1019.1 |
| 20260502102754 | 2 | 244 | 0.0 | 1.6 | 0.00 | 0.00 | 0.00 | 82 | 1019.0 |
| 20260502102251 | 1 | 240 | 0.0 | 1.6 | 0.00 | 0.00 | 0.00 | 84 | 1019.1 |
| 20260502101749 | 1 | 226 | 0.0 | 0.0 | 0.00 | 0.00 | 0.00 | 85 | 1019.2 |
| 20260502101247 | 1 | 194 | 0.0 | 0.0 | 0.00 | 0.00 | 0.00 | 85 | 1019.2 |
| 20260502100745 | 1 | 186 | 0.0 | 0.0 | 0.00 | 0.00 | 0.00 | 86 | 1019.3 |
| 20260502100243 | 1 | 198 | 0.0 | 0.0 | 0.00 | 0.00 | 0.00 | 86 | 1019.4 |
| 20260502091218 | 1 | 222 | 0.0 | 0.0 | 0.00 | 0.00 | 0.00 | 90 | 1019.4 |
| 20260502090715 | 1 | 184 | 0.0 | 0.0 | 0.00 | 0.00 | 0.00 | 91 | 1019.2 |
| 20260502090212 | 1 | 208 | 0.0 | 0.0 | 0.00 | 0.00 | 0.00 | 92 | 1019.3 |
| 20260502071107 | 1 | 223 | 0.0 | 0.0 | 0.00 | 0.00 | 0.00 | 96 | 1019.9 |
| 20260502070606 | 1 | 205 | 0.0 | 0.0 | 0.00 | 0.00 | 0.00 | 96 | 1019.9 |
| 20260502065601 | 1 | 200 | 0.0 | 0.0 | 0.00 | 0.00 | 0.00 | 97 | 1019.7 |
| 20260502065058 | 1 | 208 | 0.0 | 0.0 | 0.00 | 0.00 | 0.00 | 96 | 1019.9 |
| 20260502064551 | 1 | 208 | 0.0 | 0.0 | 0.00 | 0.00 | 0.00 | 96 | 1020.0 |
| 20260502064048 | 2 | 218 | 0.0 | 0.0 | 0.00 | 0.00 | 0.00 | 96 | 1020.0 |
| 20260502063545 | 1 | 202 | 0.0 | 0.0 | 0.00 | 0.00 | 0.00 | 96 | 1020.0 |
| 20260502063043 | 1 | 198 | 0.0 | 0.0 | 0.00 | 0.00 | 0.00 | 96 | 1020.0 |
| 20260502062540 | 1 | 194 | 0.0 | 0.0 | 0.00 | 0.00 | 0.00 | 94 | 1020.0 |
| 20260502062038 | 0 | 226 | 0.0 | 1.6 | 0.00 | 0.00 | 0.00 | 94 | 1020.0 |
| 20260502061536 | 0 | 197 | 0.0 | 0.0 | 0.00 | 0.00 | 0.00 | 92 | 1019.9 |
| 20260502061033 | 0 | 175 | 0.0 | 0.0 | 0.00 | 0.00 | 0.00 | 89 | 1020.1 |
| 20260502060528 | 0 | 174 | 0.0 | 0.0 | 0.00 | 0.00 | 0.00 | 88 | 1020.0 |
| 20260502060025 | 1 | 174 | 0.0 | 0.0 | 0.00 | 0.00 | 0.00 | 89 | 1019.9 |
| 20260502055522 | 1 | 174 | 0.0 | 0.0 | 0.00 | 0.00 | 0.00 | 91 | 1020.0 |
| 20260502055021 | 1 | 190 | 0.0 | 0.0 | 0.00 | 0.00 | 0.00 | 93 | 1020.0 |
| 20260502054520 | 1 | 191 | 0.0 | 0.0 | 0.00 | 0.00 | 0.00 | 93 | 1020.1 |
| 20260502054016 | 1 | 191 | 0.0 | 0.0 | 0.00 | 0.00 | 0.00 | 92 | 1020.3 |
| 20260502053513 | 1 | 191 | 0.0 | 0.0 | 0.00 | 0.00 | 0.00 | 89 | 1020.1 |
| 20260502053011 | 1 | 191 | 0.0 | 0.0 | 0.00 | 0.00 | 0.00 | 88 | 1019.9 |
| 20260502052509 | 1 | 191 | 0.0 | 0.0 | 0.00 | 0.00 | 0.00 | 87 | 1020.1 |
| 20260502052007 | 1 | 191 | 0.0 | 0.0 | 0.00 | 0.00 | 0.00 | 89 | 1020.2 |
| 20260502051505 | 2 | 194 | 0.0 | 0.0 | 0.00 | 0.00 | 0.00 | 87 | 1020.0 |
| 20260502051002 | 2 | 194 | 0.0 | 0.0 | 0.00 | 0.00 | 0.00 | 87 | 1020.1 |
| 20260502050458 | 2 | 192 | 0.0 | 0.0 | 0.00 | 0.00 | 0.00 | 86 | 1020.2 |
| 20260502045955 | 1 | 194 | 0.0 | 0.0 | 0.00 | 0.00 | 0.00 | 86 | 1020.2 |
| 20260502045452 | 1 | 199 | 0.0 | 0.0 | 0.00 | 0.00 | 0.00 | 88 | 1020.3 |
| 20260502044949 | 1 | 199 | 0.0 | 0.0 | 0.00 | 0.00 | 0.00 | 89 | 1020.3 |
| 20260502044444 | 1 | 204 | 0.0 | 0.0 | 0.00 | 0.00 | 0.00 | 88 | 1020.3 |
| 20260502043942 | 1 | 204 | 0.0 | 0.0 | 0.00 | 0.00 | 0.00 | 87 | 1020.4 |
| 20260502043440 | 1 | 200 | 0.0 | 0.0 | 0.00 | 0.00 | 0.00 | 86 | 1020.3 |
| 20260502042939 | 1 | 199 | 0.0 | 0.0 | 0.00 | 0.00 | 0.00 | 85 | 1020.3 |
| 20260502042436 | 1 | 199 | 0.0 | 0.0 | 0.00 | 0.00 | 0.00 | 83 | 1020.3 |
| 20260502041933 | 2 | 200 | 0.0 | 0.0 | 0.00 | 0.00 | 0.00 | 81 | 1020.3 |
| 20260502041431 | 2 | 200 | 0.0 | 0.0 | 0.00 | 0.00 | 0.00 | 80 | 1020.2 |
| 20260502040928 | 2 | 201 | 0.0 | 0.0 | 0.00 | 0.00 | 0.00 | 79 | 1020.5 |
| 20260502040424 | 2 | 192 | 0.0 | 0.0 | 0.00 | 0.00 | 0.00 | 79 | 1020.4 |
| 20260502035921 | 3 | 192 | 0.0 | 0.0 | 0.00 | 0.00 | 0.00 | 78 | 1020.4 |
| 20260502035417 | 3 | 192 | 0.0 | 0.0 | 0.00 | 0.00 | 0.00 | 73 | 1020.4 |
| 20260502034915 | 3 | 196 | 0.0 | 0.0 | 0.00 | 0.00 | 0.00 | 71 | 1020.6 |
| 20260502034414 | 3 | 200 | 0.0 | 0.0 | 0.00 | 0.00 | 0.00 | 67 | 1020.5 |
| 20260502033911 | 3 | 197 | 0.0 | 0.0 | 0.00 | 0.00 | 0.00 | 65 | 1020.6 |
| 20260502033409 | 3 | 197 | 0.0 | 0.0 | 0.00 | 0.00 | 0.00 | 63 | 1020.5 |
| 20260502032905 | 3 | 188 | 0.0 | 0.0 | 0.00 | 0.00 | 0.00 | 62 | 1020.5 |
| 20260502032402 | 3 | 196 | 0.0 | 0.0 | 0.00 | 0.00 | 0.00 | 63 | 1020.5 |
| 20260502031859 | 4 | 186 | 0.0 | 0.0 | 0.00 | 0.00 | 0.00 | 62 | 1020.6 |
| 20260502031357 | 3 | 192 | 0.0 | 0.0 | 0.00 | 0.00 | 0.00 | 62 | 1020.7 |
| 20260502030855 | 3 | 192 | 0.0 | 0.0 | 0.00 | 0.00 | 0.00 | 61 | 1020.4 |
| 20260502030353 | 4 | 192 | 0.0 | 0.0 | 0.00 | 0.00 | 0.00 | 59 | 1020.5 |
| 20260502025850 | 5 | 192 | 0.0 | 0.0 | 0.00 | 0.00 | 0.00 | 58 | 1020.3 |
| 20260502025348 | 5 | 192 | 0.0 | 0.0 | 0.00 | 0.00 | 0.00 | 57 | 1020.3 |
| 20260502024845 | 5 | 192 | 0.0 | 0.0 | 0.00 | 0.00 | 0.00 | 56 | 1020.2 |
| 20260502024343 | 5 | 192 | 0.0 | 0.0 | 0.00 | 0.00 | 0.00 | 57 | 1020.3 |
| 20260502023841 | 5 | 192 | 0.0 | 0.0 | 0.00 | 0.00 | 0.00 | 57 | 1020.2 |
| 20260502023338 | 5 | 191 | 0.0 | 0.0 | 0.00 | 0.00 | 0.00 | 58 | 1020.2 |
| 20260502022836 | 5 | 193 | 0.0 | 0.0 | 0.00 | 0.00 | 0.00 | 56 | 1020.2 |
| 20260502022332 | 5 | 195 | 0.0 | 0.0 | 0.00 | 0.00 | 0.00 | 55 | 1020.3 |
| 20260502021829 | 6 | 199 | 0.0 | 0.0 | 0.00 | 0.00 | 0.00 | 54 | 1020.3 |
| 20260502021326 | 6 | 208 | 0.0 | 0.0 | 0.00 | 0.00 | 0.00 | 53 | 1020.4 |
| 20260502020824 | 6 | 191 | 0.0 | 0.0 | 0.00 | 0.00 | 0.00 | 52 | 1020.4 |
| 20260502020321 | 7 | 203 | 0.0 | 0.0 | 0.00 | 0.00 | 0.00 | 51 | 1020.2 |
| 20260502015818 | 7 | 224 | 0.0 | 0.0 | 0.00 | 0.00 | 0.00 | 49 | 1020.3 |
| 20260502015315 | 8 | 259 | 0.0 | 1.6 | 0.00 | 0.00 | 0.00 | 47 | 1020.1 |
| 20260502014812 | 8 | 307 | 1.6 | 1.6 | 0.00 | 0.00 | 0.00 | 47 | 1020.1 |
| 20260502014309 | 8 | 333 | 1.6 | 3.2 | 0.00 | 0.00 | 0.00 | 46 | 1020.1 |
| 20260502013805 | 8 | 260 | 0.0 | 3.2 | 0.00 | 0.00 | 0.00 | 44 | 1020.0 |
| 20260502013301 | 8 | 328 | 3.2 | 4.8 | 0.00 | 0.00 | 0.00 | 44 | 1020.0 |
| 20260502012757 | 8 | 338 | 3.2 | 4.8 | 0.00 | 0.00 | 0.00 | 45 | 1020.2 |
| 20260502012255 | 9 | 281 | 1.6 | 4.8 | 0.00 | 0.00 | 0.00 | 43 | 1019.9 |
| 20260502011753 | 9 | 317 | 3.2 | 6.4 | 0.00 | 0.00 | 0.00 | 43 | 1020.0 |
| 20260502011248 | 9 | 322 | 1.6 | 4.8 | 0.00 | 0.00 | 0.00 | 43 | 1019.9 |
| 20260502010746 | 10 | 323 | 3.2 | 9.7 | 0.00 | 0.00 | 0.00 | 41 | 1019.9 |
| 20260502010242 | 10 | 338 | 4.8 | 6.4 | 0.00 | 0.00 | 0.00 | 40 | 1020.0 |
| 20260502005739 | 10 | 347 | 6.4 | 9.7 | 0.00 | 0.00 | 0.00 | 39 | 1019.9 |
| 20260502005237 | 10 | 307 | 4.8 | 4.8 | 0.00 | 0.00 | 0.00 | 39 | 1019.9 |
| 20260502004734 | 10 | 287 | 3.2 | 11.3 | 0.00 | 0.00 | 0.00 | 38 | 1019.9 |
| 20260502004230 | 10 | 289 | 4.8 | 4.8 | 0.00 | 0.00 | 0.00 | 38 | 1019.9 |
| 20260502003728 | 10 | 303 | 4.8 | 11.3 | 0.00 | 0.00 | 0.00 | 38 | 1019.9 |
| 20260502003225 | 10 | 287 | 4.8 | 6.4 | 0.00 | 0.00 | 0.00 | 38 | 1019.9 |
| 20260502002720 | 11 | 330 | 3.2 | 9.7 | 0.00 | 0.00 | 0.00 | 39 | 1019.9 |